This demonstration page uses our WeatherBlox Daily Observations layout. Learn more.

Left ArrowRight Arrow

Hourly Observations for July 20, 2022

Temp ( °F °C ) Dew Point ( °F °C ) Humidity (%) Winds ( mph kmh ) Pressure ( in mb ) Visibility ( mi km ) Precip ( " mm )
12:15 am 00:15 Clear 71 21.9 60 15.7 68 68 WSW 5 7 29.80 1009 10 16 0.00 0.00
12:35 am 00:35 Clear 69 20.6 61 16 75 75 WSW 3 6 29.82 1010 10 16 0.00 0.00
12:55 am 00:55 Clear 68 19.9 61 16 78 78 Calm 29.82 1010 10 16 0.00 0.00
1:15 am 01:15 Clear 69 20.3 60 15.5 74 74 W 3 6 29.82 1010 10 16 0.00 0.00
1:35 am 01:35 Clear 66 19 60 15.6 81 81 N 5 7 29.86 1011 10 16 0.00 0.00
1:55 am 01:55 Clear 64 17.5 60 15.4 88 88 N 5 7 29.87 1011 10 16 0.00 0.00
2:15 am 02:15 Clear 63 17 59 15.2 89 89 N 5 7 29.86 1011 10 16 0.00 0.00
2:35 am 02:35 Clear 67 19.3 59 15.2 77 77 WNW 3 6 29.85 1011 10 16 0.00 0.00
2:55 am 02:55 Clear 64 18 59 15.2 84 84 WNW 3 6 29.86 1011 10 16 0.00 0.00
3:15 am 03:15 Clear 64 17.9 60 15.5 86 86 NW 5 7 29.87 1012 10 16 0.00 0.00
3:35 am 03:35 Clear 67 19.4 59 15.1 76 76 N 8 13 29.85 1011 10 16 0.00 0.00
3:55 am 03:55 Clear 66 19 59 15 78 78 Calm 29.87 1011 10 16 0.00 0.00
4:15 am 04:15 Clear 65 18.4 59 15 81 81 NE 8 13 29.87 1012 10 16 0.00 0.00
4:35 am 04:35 Clear 65 18.2 58 14.5 79 79 N 8 13 29.88 1012 10 16 0.00 0.00
4:55 am 04:55 Clear 63 17.4 58 14.4 83 83 N 7 11 29.89 1012 10 16 0.00 0.00
5:15 am 05:15 Clear 63 17 58 14.2 84 84 N 7 11 29.89 1012 10 16 0.00 0.00
5:35 am 05:35 Clear 62 16.6 57 14 85 85 NNE 5 7 29.91 1013 10 16 0.00 0.00
5:55 am 05:55 Clear 62 16.5 57 13.8 84 84 N 6 9 29.92 1013 10 16 0.00 0.00
6:15 am 06:15 Clear 60 15.8 56 13.6 87 87 NNW 5 7 29.93 1014 10 16 0.00 0.00
6:35 am 06:35 Sunny 62 16.5 56 13.2 81 81 NW 5 7 29.94 1014 10 16 0.00 0.00
6:55 am 06:55 Sunny 62 16.5 56 13.2 81 81 WNW 6 9 29.95 1014 10 16 0.00 0.00
7:15 am 07:15 Sunny 63 17.1 57 13.8 81 81 NNW 3 6 29.94 1014 10 16 0.00 0.00
7:35 am 07:35 Sunny 64 17.6 57 14 80 80 NNW 3 6 29.95 1014 10 16 0.00 0.00
7:55 am 07:55 Sunny 66 19.1 59 14.9 77 77 Calm 29.94 1014 10 16 0.00 0.00
8:15 am 08:15 Sunny 68 20 59 15.2 74 74 NNW 3 6 29.93 1013 10 16 0.00 0.00
8:35 am 08:35 Sunny 71 21.5 58 14.7 65 65 N 5 7 29.91 1013 10 16 0.00 0.00
8:55 am 08:55 Sunny 72 22 59 15.1 65 65 NNW 3 6 29.92 1013 10 16 0.00 0.00
9:15 am 09:15 Hazy 73 22.7 60 15.7 65 65 NNW 5 7 29.92 1013 3 4 0.00 0.00
9:35 am 09:35 Sunny 74 23.4 58 14.7 58 58 NNW 3 6 29.91 1013 10 16 0.00 0.00
9:55 am 09:55 Sunny 75 23.9 58 14.7 56 56 Calm 29.90 1012 10 16 0.00 0.00
10:15 am 10:15 Sunny 76 24.5 58 14.7 54 54 NNE 5 7 29.90 1013 10 16 0.00 0.00
10:35 am 10:35 Hazy 78 25.5 58 14.7 51 51 Calm 29.89 1012 5 8 0.00 0.00
10:55 am 10:55 Sunny 78 25.7 57 13.8 48 48 Calm 29.89 1012 10 16 0.00 0.00
11:15 am 11:15 Sunny 79 26.2 59 14.9 50 50 N 3 6 29.89 1012 10 16 0.00 0.00
11:35 am 11:35 Sunny 79 26.3 60 15.4 51 51 NNE 3 6 29.89 1012 10 16 0.00 0.00
11:55 am 11:55 Sunny 80 26.6 60 15.8 52 52 NNE 5 7 29.88 1012 10 16 0.00 0.00
12:15 pm 12:15 Sunny 80 26.8 58 14.4 47 47 NNE 6 9 29.88 1012 10 16 0.00 0.00
12:35 pm 12:35 Sunny 81 27 59 15 48 48 NE 3 6 29.88 1012 10 16 0.00 0.00
12:55 pm 12:55 Sunny 82 27.5 59 15.1 47 47 NNW 5 7 29.88 1012 10 16 0.00 0.00
1:15 pm 13:15 Sunny 82 27.8 60 15.5 47 47 NNW 7 11 29.87 1012 10 16 0.00 0.00
1:35 pm 13:35 Sunny 82 27.7 60 15.3 47 47 NNW 6 9 29.88 1012 10 16 0.00 0.00
1:55 pm 13:55 Sunny 83 28.5 60 15.7 46 46 N 5 7 29.86 1011 10 16 0.00 0.00
2:15 pm 14:15 Sunny 84 28.7 60 15.7 45 45 N 6 9 29.86 1011 10 16 0.00 0.00
2:35 pm 14:35 Sunny 84 28.9 60 15.4 44 44 Calm 29.85 1011 10 16 0.00 0.00
2:55 pm 14:55 Sunny 85 29.5 60 15.8 43 43 NNW 3 6 29.84 1011 10 16 0.00 0.00
3:15 pm 15:15 Sunny 85 29.5 60 15.3 42 42 Calm 29.84 1011 10 16 0.00 0.00
3:35 pm 15:35 Sunny 86 29.8 59 15.1 41 41 Calm 29.84 1010 10 16 0.00 0.00
3:55 pm 15:55 Sunny 87 30.3 60 15.5 41 41 N 3 6 29.83 1010 10 16 0.00 0.00
4:15 pm 16:15 Sunny 87 30.6 60 15.7 41 41 W 3 6 29.82 1010 10 16 0.00 0.00
4:35 pm 16:35 Sunny 86 30 60 15.5 41 41 NNW 3 6 29.82 1010 10 16 0.00 0.00
4:55 pm 16:55 Sunny 87 30.3 61 16.2 43 43 ENE 3 6 29.81 1009 10 16 0.00 0.00
5:15 pm 17:15 Sunny 87 30.4 61 16.3 43 43 Calm 29.80 1009 10 16 0.00 0.00
5:35 pm 17:35 Sunny 85 29.6 62 16.9 46 46 Calm 29.81 1010 10 16 0.00 0.00
5:55 pm 17:55 Sunny 87 30.5 62 16.8 44 44 ESE 3 6 29.80 1009 10 16 0.00 0.00
6:15 pm 18:15 Sunny 86 29.8 65 18.4 50 50 SE 6 9 29.81 1009 10 16 0.00 0.00
6:35 pm 18:35 Sunny 85 29.7 64 17.9 49 49 SE 5 7 29.81 1009 10 16 0.00 0.00
6:55 pm 18:55 Sunny 85 29.3 65 18.6 53 53 SSE 6 9 29.81 1010 10 16 0.00 0.00
7:15 pm 19:15 Partly Cloudy 84 29.1 65 18.6 53 53 SSE 5 7 29.81 1010 10 16 0.00 0.00
7:35 pm 19:35 Mostly Cloudy 83 28.5 68 20 60 60 SSE 6 9 29.81 1009 10 16 0.00 0.00
7:55 pm 19:55 Partly Cloudy 82 27.5 69 20.6 66 66 S 6 9 29.82 1010 10 16 0.00 0.00
8:15 pm 20:15 Sunny 80 26.5 69 20.5 70 70 S 5 7 29.82 1010 10 16 0.00 0.00
8:35 pm 20:35 Sunny 78 25.4 69 20.8 76 76 SSE 6 9 29.83 1010 10 16 0.00 0.00
8:55 pm 20:55 Sunny 76 24.5 69 20.8 80 80 SSE 7 11 29.84 1011 10 16 0.00 0.00
9:15 pm 21:15 Clear 74 23.6 66 19.1 76 76 SSE 7 11 29.86 1011 10 16 0.00 0.00
9:35 pm 21:35 Clear 73 22.9 65 18.5 76 76 SE 7 11 29.86 1011 10 16 0.00 0.00
9:55 pm 21:55 Clear 71 21.7 65 18.2 81 81 SSE 7 11 29.88 1012 10 16 0.00 0.00
10:15 pm 22:15 Clear 71 21.8 64 17.6 77 77 SSE 8 13 29.88 1012 10 16 0.00 0.00
10:35 pm 22:35 Clear 71 21.5 62 16.5 73 73 SSE 7 11 29.88 1012 10 16 0.00 0.00
10:55 pm 22:55 Clear 71 21.4 61 16.1 72 72 SSE 7 11 29.89 1012 10 16 0.00 0.00
11:15 pm 23:15 Clear 70 20.9 61 15.9 73 73 S 8 13 29.89 1012 10 16 0.00 0.00
11:35 pm 23:35 Clear 68 20.1 61 16.2 78 78 S 7 11 29.90 1012 10 16 0.00 0.00
11:55 pm 23:55 Clear 67 19.6 61 16.2 81 81 S 8 13 29.89 1012 10 16 0.00 0.00

Powered by AerisWeather